Barksdale AFB, LA

3:19 AM CDT on May 25, 2017 (GMT -0500)
Barksdale Air Force Base

Weather History for KBAD - April, 2013

Change the Weather History Date:

Friday, April 19, 2013

  Actual Average Record
Temperature  
Mean Temperature 50 °F -  
Max Temperature 60 °F 75 °F 93 °F (2011)
Min Temperature 40 °F 54 °F 40 °F (2013)
Degree Days  
Heating Degree Days 16    
Moisture  
Dew Point 33 °F    
Average Humidity 53    
Maximum Humidity 91    
Minimum Humidity 34    
Precipitation  
Precipitation 0.00 in - - ()
Sea Level Pressure  
Sea Level Pressure 30.16 in    
Wind  
Wind Speed 14 mph (NNW)    
Max Wind Speed 24 mph    
Max Gust Speed 29 mph    
Visibility 10 miles    
Events      
Averages and records for this station are not official NWS values.
T = Trace of Precipitation, MM = Missing Value Source: NWS Daily Summary

Daily Weather History Graph

Daily Weather History Graph

Search for Another Location

Airport or City:

Trip Planner

Search our weather history database for the weather conditions in past years. The results will help you decide how hot, cold, wet, or windy it might be!

Date:

Astronomy

Apr. 19, 2013 Rise Set
Actual Time 6:40 AM CDT 7:47 PM CDT
Civil Twilight 6:14 AM CDT 8:13 PM CDT
Nautical Twilight 5:44 AM CDT 8:43 PM CDT
Astronomical Twilight 5:13 AM CDT 9:14 PM CDT
Moon 1:52 PM CDT (4/19) 2:35 AM CDT (4/19)
Length of Visible Light 13h 58m
Length of Day
13h 07m
First Quarter, 62% of the Moon is Illuminated
Apr 19
First Quarter
Apr 25
Full
May 2
Last Quarter
May 9
New
May 17
First Quarter

Hourly Weather History & Observations

Time (CDT) Temp. Windchill Dew Point Humidity Pressure Visibility Wind Dir Wind Speed Gust Speed Precip Events Conditions
12:58 AM 45.1 °F 38.4 °F 38.8 °F 79% 30.09 in 10.0 mi NNW 15.0 mph - N/A   Clear
1:58 AM 44.8 °F 37.1 °F 35.2 °F 69% 30.09 in 10.0 mi NNW 18.4 mph - N/A   Clear
2:58 AM 43.3 °F 35.8 °F 34.0 °F 70% 30.08 in 10.0 mi NNW 16.1 mph - N/A   Clear
3:58 AM 42.4 °F 34.7 °F 33.1 °F 69% 30.12 in 10.0 mi NW 16.1 mph - N/A   Clear
4:58 AM 41.9 °F 34.6 °F 32.4 °F 69% 30.13 in 10.0 mi NW 13.8 mph - N/A   Clear
5:58 AM 40.8 °F 33.3 °F 33.3 °F 74% 30.16 in 10.0 mi NW 13.8 mph - N/A   Clear
6:58 AM 40.1 °F 33.6 °F 32.4 °F 74% 30.18 in 10.0 mi NW 10.4 mph - N/A   Clear
7:58 AM 40.5 °F 34.1 °F 32.5 °F 73% 30.19 in 10.0 mi NW 10.4 mph - N/A   Clear
8:58 AM 46.2 °F 39.0 °F 31.3 °F 56% 30.20 in 10.0 mi NNW 18.4 mph 28.8 mph N/A   Clear
9:58 AM 48.4 °F - 29.3 °F 48% 30.19 in 10.0 mi NNW 24.2 mph 26.5 mph N/A   Clear
10:58 AM 50.0 °F - 30.0 °F 46% 30.21 in 10.0 mi North 19.6 mph 26.5 mph N/A   Clear
11:58 AM 52.9 °F - 30.2 °F 42% 30.21 in 10.0 mi NNW 19.6 mph - N/A   Clear
12:58 PM 54.9 °F - 30.7 °F 40% 30.20 in 10.0 mi NNW 18.4 mph 23.0 mph N/A   Partly Cloudy
1:21 PM 55.4 °F - 32.0 °F 41% 30.19 in 10.0 mi NNW 13.8 mph 24.2 mph N/A   Clear
1:58 PM 57.2 °F - 30.7 °F 37% 30.18 in 10.0 mi NW 11.5 mph 24.2 mph N/A   Clear
2:08 PM 57.2 °F - 32.0 °F 38% 30.17 in 10.0 mi North 16.1 mph 24.2 mph N/A   Clear
2:58 PM 58.5 °F - 30.7 °F 35% 30.17 in 10.0 mi NW 13.8 mph 20.7 mph N/A   Clear
3:22 PM 59.0 °F - 32.0 °F 36% 30.15 in 10.0 mi WNW 13.8 mph 23.0 mph N/A   Clear
3:52 PM 59.0 °F - 32.0 °F 36% 30.14 in 10.0 mi NNW 17.3 mph 27.6 mph N/A   Clear
3:58 PM 59.5 °F - 31.5 °F 35% 30.14 in 10.0 mi NNW 16.1 mph 27.6 mph N/A   Clear
4:20 PM 59.0 °F - 32.0 °F 36% 30.13 in 10.0 mi NW 16.1 mph - N/A   Clear
4:58 PM 59.9 °F - 31.1 °F 34% 30.14 in 10.0 mi NNW 16.1 mph - N/A   Clear
5:14 PM 59.0 °F - 30.2 °F 34% 30.13 in 10.0 mi North 15.0 mph - N/A   Clear
5:58 PM 59.5 °F - 31.8 °F 35% 30.15 in 10.0 mi North 10.4 mph - N/A   Clear
6:58 PM 57.7 °F - 29.8 °F 35% 30.15 in 10.0 mi North 8.1 mph - N/A   Clear
7:58 PM 53.8 °F - 33.3 °F 46% 30.17 in 10.0 mi North 3.5 mph - N/A   Clear
8:58 PM 46.2 °F - 36.7 °F 69% 30.19 in 10.0 mi Calm Calm - N/A   Clear
9:58 PM 46.2 °F - 39.0 °F 76% 30.20 in 10.0 mi SE 2.3 mph - N/A   Clear
10:58 PM 44.1 °F - 39.0 °F 82% 30.22 in 10.0 mi SE 2.3 mph - N/A   Clear
11:58 PM 40.6 °F 38.6 °F 38.3 °F 91% 30.22 in 10.0 mi SSE 3.5 mph - N/A   Clear